[[{"header":{"parameterUnit":"m.s-1","parameterCategory":1,"la1":30.2991,"la2":30.254,"lo1":-89.0895,"lo2":-89.0444,"dy":0.0017,"dx":0.0017,"nx":28,"ny":28,"refTime":"2024-07-29T03:00:00:Z","depth":0,"parameterNumber":2,"parameterNumberName":"U-component_of_WINDS"},"data":[0,0,0,0,0,0,0,0,0,0,0,0,0,0,0,0,0,0,0,0,0,0,0,0,0,0,0,0,0,0,0,0,0,0,0,0,0,0,0,0,0,0,0,0,0,0,0,0,0,0,0,0,0,0,0,0,0,0,1.2183,1.2184,0,1.2299,1.23,1.2301,1.2312,1.2311,1.231,1.2309,1.2433,1.2437,1.2441,0,0,0,0,0,0,0,0,0,0,0,0,0,1.1976,1.1979,1.2183,1.2184,1.2185,1.2298,1.23,1.2302,1.2313,1.2311,1.231,1.2308,1.2431,1.2436,1.2442,0,0,0,0,0,0,0,0,0,0,0,0,0,1.2076,1.1981,1.2182,1.2204,1.2208,1.2298,1.23,1.2302,1.2313,1.2311,1.2309,1.2308,1.2429,1.2436,1.2443,1.252,0,0,1.2463,1.2466,0,0,0,0,0,0,0,0,1.207,1.2084,1.22,1.2203,1.2207,1.2289,1.2272,1.2375,1.2313,1.2273,1.2309,1.2307,1.2387,1.2397,1.2423,1.2526,1.2532,1.2463,1.2468,1.247,1.2472,0,0,0,0,0,0,0,1.2063,1.2079,1.2229,1.2201,1.2206,1.221,1.2222,1.2292,1.2339,1.2276,1.2277,1.2291,1.2388,1.2416,1.2426,1.2533,1.2463,1.2469,1.2473,1.2476,1.2708,1.271,0,0,0,0,0,0,1.2052,1.2073,1.2225,1.2232,1.2132,1.2215,1.2229,1.2265,1.2338,1.2348,1.2292,1.2291,1.2406,1.2418,1.243,1.2527,1.247,1.2477,1.248,1.2706,1.2708,1.271,0,0,0,0,0,0,1.2047,1.2065,1.222,1.2153,1.2173,1.2221,1.2261,1.2268,1.2296,1.235,1.2359,1.2312,1.2405,1.2421,1.2498,1.2531,1.248,1.2486,1.2703,1.2706,1.2709,1.272,0,0,0,0,0,0,1.2041,1.2063,1.2092,1.2153,1.2176,1.2284,1.2263,1.2271,1.2307,1.2306,1.2371,1.238,1.2405,1.2488,1.2504,1.254,1.2491,1.27,1.2704,1.2708,1.2717,1.2724,1.2729,0,0,0,0,0,1.2034,1.2092,1.2094,1.2112,1.2213,1.2286,1.23,1.2325,1.2309,1.234,1.2374,1.2378,1.2525,1.2495,1.2514,1.2552,1.2698,1.2703,1.2708,1.2715,1.2722,1.2729,0,0,0,0,0,0,1.2035,1.21,1.2103,1.2182,1.2228,1.2288,1.2327,1.2333,1.2386,1.2383,1.2415,1.2429,1.2505,1.2536,1.2503,1.2632,1.261,1.2619,1.2609,1.2616,1.2622,1.2614,1.2496,0,0,0,0,0,1.2044,1.2097,1.2151,1.2216,1.2239,1.2279,1.2312,1.2327,1.2377,1.2397,1.2438,1.2488,1.2545,1.2582,1.2638,1.2721,1.2737,1.2757,1.2763,1.2767,1.2775,1.2822,1.2832,1.2726,1.2726,1.2726,0,0,1.2065,1.2107,1.2138,1.2217,1.2255,1.231,1.2295,1.2354,1.2396,1.2407,1.2482,1.2513,1.2571,1.2651,1.2689,1.268,1.2807,1.2773,1.2777,1.2782,1.2828,1.2838,1.2847,1.273,1.2729,1.2729,0,0,1.213,1.2166,1.2224,1.2262,1.2319,1.2345,1.2359,1.2418,1.2438,1.2514,1.2523,1.2574,1.2672,1.2713,1.2746,1.2827,1.2832,1.2844,1.2875,1.2921,1.2929,1.2937,1.2967,1.2977,1.2851,1.2851,1.2851,0,1.2149,1.223,1.2254,1.2313,1.2348,1.2358,1.2418,1.2454,1.2527,1.2552,1.254,1.2663,1.2703,1.2793,1.2813,1.2839,1.2857,1.2837,1.2926,1.2934,1.2941,1.297,1.2981,1.2852,1.2852,1.2852,1.2852,0,1.2251,1.2307,1.2348,1.2416,1.2456,1.2515,1.2549,1.2587,1.2599,1.2626,1.2704,1.2751,1.2817,1.2839,1.2853,1.2933,1.2925,1.2919,1.2898,1.2952,1.2979,1.2991,1.2854,1.2854,1.2853,1.2853,0,0,1.2321,1.2401,1.2416,1.2447,1.251,1.2555,1.2615,1.2677,1.271,1.2759,1.2811,1.2894,1.2888,1.2927,1.2944,1.2984,1.3046,1.2974,1.2976,1.2986,1.3138,1.3143,1.3155,1.305,1.3052,1.3053,1.3134,0,1.2394,1.25,1.2523,1.2614,1.2668,1.2678,1.2731,1.2776,1.2804,1.2854,1.2885,1.2943,1.2931,1.2955,1.2995,1.303,1.3077,1.3024,1.31,1.3103,1.3086,1.3169,1.3175,1.3248,1.3144,1.3146,1.3148,0,1.2494,1.2544,1.264,1.2696,1.272,1.2766,1.2826,1.2873,1.2925,1.2943,1.2985,1.2998,1.3063,1.3037,1.3127,1.3091,1.3123,1.3145,1.3149,1.3158,1.3129,1.3182,1.3272,1.3283,1.3165,1.3163,1.3162,0,1.2537,1.2629,1.2698,1.2725,1.2791,1.2824,1.2854,1.2904,1.294,1.2992,1.3017,1.3076,1.3109,1.3156,1.3186,1.3165,1.3274,1.3251,1.3292,1.3291,1.3316,1.3314,1.3413,1.3335,1.3334,1.3334,1.3334,0,1.2617,1.2676,1.2718,1.2761,1.2828,1.2854,1.292,1.295,1.2994,1.3045,1.3058,1.3105,1.3141,1.3194,1.3217,1.3289,1.3304,1.3321,1.3327,1.332,1.3318,1.3343,1.3339,1.3337,1.3336,1.3336,1.3335,0,1.2677,1.2707,1.2784,1.284,1.2856,1.2903,1.2952,1.2995,1.3022,1.3086,1.3102,1.3146,1.3208,1.3242,1.3321,1.3337,1.3418,1.342,1.34,1.3402,1.3441,1.3438,1.3561,1.3579,1.3487,1.3488,1.3489,0,1.2726,1.2771,1.2832,1.2866,1.2895,1.295,1.2986,1.3014,1.3052,1.3115,1.3151,1.3213,1.3265,1.3365,1.3405,1.3465,1.347,1.3509,1.348,1.3472,1.3472,1.3469,1.3475,1.3515,1.3516,1.3516,1.3517,0,1.2811,1.2824,1.2875,1.2932,1.2975,1.3021,1.3067,1.3095,1.3131,1.3173,1.3236,1.3276,1.3356,1.3418,1.3482,1.3514,1.3523,1.3526,1.3539,1.3533,1.3519,1.3528,1.3415,1.3523,1.3523,1.3522,1.3522,1.3521,1.2868,1.2909,1.2958,1.3015,1.3052,1.3095,1.3138,1.317,1.3222,1.3288,1.3302,1.3369,1.342,1.3506,1.354,1.3594,1.3587,1.3605,1.361,1.3614,1.3616,1.351,1.3606,1.3606,1.3606,1.3606,1.3606,0,1.2954,1.2986,1.3038,1.3101,1.3146,1.3147,1.3199,1.3237,1.3295,1.3341,1.3392,1.3465,1.3525,1.357,1.3632,1.3667,1.3672,1.3682,1.3681,1.3688,1.3619,1.3602,1.3677,1.3677,1.3677,1.3677,1.3677,1.3677,1.3004,1.3074,1.3092,1.3181,1.3212,1.3277,1.3306,1.3346,1.3383,1.3463,1.3513,1.3541,1.3587,1.3653,1.3709,1.3721,1.3744,1.3754,1.3766,1.3701,1.3693,1.3686,1.367,1.3758,1.3758,1.3831,1.3831,1.3832]},{"header":{"parameterUnit":"m.s-1","parameterCategory":1,"la1":30.2991,"la2":30.254,"lo1":-89.0895,"lo2":-89.0444,"dy":0.0017,"dx":0.0017,"nx":28,"ny":28,"refTime":"2024-07-29T03:00:00:Z","depth":0,"parameterNumber":3,"parameterNumberName":"V-component_of_WINDS"},"data":[0,0,0,0,0,0,0,0,0,0,0,0,0,0,0,0,0,0,0,0,0,0,0,0,0,0,0,0,0,0,0,0,0,0,0,0,0,0,0,0,0,0,0,0,0,0,0,0,0,0,0,0,0,0,0,0,0,0,1.8813,1.8812,0,1.8769,1.8769,1.8768,1.8737,1.8736,1.8736,1.8736,1.869,1.8689,1.8688,0,0,0,0,0,0,0,0,0,0,0,0,0,1.8866,1.8865,1.8813,1.8812,1.8812,1.8769,1.8769,1.8768,1.8737,1.8736,1.8736,1.8736,1.869,1.8689,1.8688,0,0,0,0,0,0,0,0,0,0,0,0,0,1.8835,1.8865,1.8813,1.8791,1.8789,1.8769,1.8769,1.8768,1.8737,1.8736,1.8736,1.8736,1.869,1.8689,1.8687,1.8686,0,0,1.8683,1.8682,0,0,0,0,0,0,0,0,1.8836,1.8833,1.8795,1.8793,1.879,1.8758,1.877,1.874,1.8737,1.8756,1.8736,1.8735,1.8713,1.8709,1.8702,1.8684,1.8682,1.8683,1.8682,1.8681,1.8681,0,0,0,0,0,0,0,1.8839,1.8834,1.8796,1.8794,1.8791,1.8782,1.8777,1.8764,1.8737,1.8755,1.8752,1.8748,1.8711,1.8703,1.87,1.8681,1.8683,1.8681,1.868,1.868,1.8656,1.8656,0,0,0,0,0,0,1.8845,1.8836,1.8797,1.8794,1.8813,1.8782,1.8776,1.8769,1.8737,1.8732,1.8748,1.8746,1.8706,1.8702,1.8699,1.8693,1.8681,1.868,1.8679,1.8655,1.8656,1.8656,0,0,0,0,0,0,1.8846,1.8841,1.8799,1.8815,1.8809,1.8781,1.8773,1.8768,1.876,1.8732,1.8727,1.8745,1.8706,1.8701,1.8689,1.8691,1.8679,1.8678,1.8655,1.8655,1.8656,1.8682,0,0,0,0,0,0,1.8848,1.8842,1.8842,1.8815,1.8808,1.8791,1.8773,1.8767,1.8758,1.8755,1.8728,1.8723,1.8705,1.8691,1.8687,1.8688,1.8677,1.8655,1.8655,1.8656,1.8681,1.8683,1.8685,0,0,0,0,0,1.885,1.8852,1.8842,1.8838,1.8808,1.8791,1.8787,1.8766,1.8758,1.8757,1.8739,1.8724,1.8691,1.869,1.8685,1.8686,1.8655,1.8655,1.8656,1.868,1.8683,1.8685,0,0,0,0,0,0,1.888,1.8848,1.8837,1.8831,1.8814,1.8786,1.8784,1.877,1.8755,1.8753,1.8727,1.8721,1.8711,1.8697,1.8697,1.8681,1.8671,1.867,1.8691,1.8693,1.8695,1.8699,1.8675,0,0,0,0,0,1.8886,1.8876,1.8848,1.8845,1.8837,1.8812,1.8804,1.8789,1.877,1.8763,1.8744,1.8725,1.871,1.8701,1.8686,1.8678,1.8671,1.8676,1.8679,1.8681,1.8681,1.8673,1.8674,1.8658,1.8658,1.8658,0,0,1.8898,1.8879,1.8875,1.885,1.8836,1.8824,1.8806,1.8796,1.8786,1.8761,1.8748,1.8733,1.871,1.87,1.8694,1.8688,1.8683,1.8681,1.8683,1.8682,1.8673,1.8675,1.8676,1.8658,1.8658,1.8658,0,0,1.8915,1.89,1.8895,1.888,1.8857,1.884,1.8839,1.8812,1.8801,1.8788,1.8767,1.8755,1.8731,1.8715,1.8704,1.8711,1.8696,1.8707,1.8718,1.8711,1.8712,1.8713,1.8714,1.8715,1.8707,1.8707,1.8707,0,1.8933,1.8916,1.8894,1.8884,1.8873,1.8849,1.8842,1.8828,1.8802,1.8794,1.8788,1.8754,1.8738,1.8722,1.8723,1.8716,1.8712,1.871,1.8714,1.8715,1.8715,1.8716,1.8716,1.8708,1.8708,1.8708,1.8708,0,1.8938,1.8926,1.8924,1.8899,1.8888,1.888,1.8855,1.8846,1.8831,1.8814,1.8799,1.8778,1.8757,1.8752,1.8738,1.8733,1.873,1.8719,1.8708,1.8719,1.8718,1.8719,1.871,1.871,1.8709,1.8709,0,0,1.8973,1.8934,1.8934,1.8921,1.8893,1.8883,1.8873,1.8852,1.8844,1.8826,1.8815,1.8794,1.8783,1.877,1.8753,1.8747,1.8751,1.8737,1.8736,1.8739,1.8742,1.875,1.875,1.8741,1.8741,1.8741,1.8743,0,1.8984,1.8965,1.8943,1.8931,1.8919,1.8895,1.8885,1.8866,1.8849,1.8835,1.8816,1.8801,1.8789,1.878,1.8773,1.8753,1.8752,1.8752,1.873,1.8729,1.8735,1.8751,1.8759,1.8762,1.8743,1.8743,1.8743,0,1.8994,1.8977,1.8963,1.8935,1.8929,1.8921,1.8899,1.8886,1.8863,1.8851,1.8836,1.8818,1.8803,1.8794,1.8772,1.8773,1.8762,1.875,1.875,1.8747,1.8737,1.8746,1.8763,1.8763,1.8743,1.8743,1.8743,0,1.9019,1.8992,1.898,1.897,1.8937,1.8931,1.8917,1.8893,1.8882,1.8862,1.8854,1.8833,1.8821,1.8804,1.878,1.8776,1.8761,1.875,1.8749,1.8749,1.8747,1.8747,1.8761,1.8741,1.8741,1.8741,1.8741,0,1.9033,1.9025,1.899,1.8983,1.8973,1.8947,1.8937,1.8921,1.89,1.8887,1.8865,1.8853,1.8823,1.8807,1.8788,1.8772,1.8767,1.8756,1.8751,1.8757,1.8759,1.875,1.8748,1.8741,1.8741,1.8741,1.8741,0,1.9059,1.9036,1.902,1.899,1.8981,1.8975,1.8948,1.8939,1.892,1.8904,1.8899,1.8869,1.8849,1.8824,1.8796,1.8783,1.8768,1.8761,1.8776,1.8773,1.8773,1.8773,1.8781,1.878,1.8762,1.8763,1.8763,0,1.9068,1.9062,1.903,1.902,1.9006,1.8991,1.8979,1.8953,1.8941,1.8912,1.8906,1.8884,1.8866,1.8834,1.8809,1.8787,1.8778,1.8782,1.8775,1.8781,1.8777,1.8777,1.8775,1.8784,1.8785,1.8785,1.8785,0,1.9087,1.9076,1.906,1.9038,1.9024,1.9006,1.8987,1.898,1.895,1.8937,1.8916,1.8902,1.8872,1.885,1.8824,1.8808,1.8791,1.8788,1.8786,1.8793,1.8801,1.8795,1.878,1.8788,1.8787,1.8787,1.8787,1.8787,1.9104,1.9096,1.9072,1.9054,1.9037,1.9019,1.9009,1.8988,1.8971,1.8946,1.8931,1.891,1.8885,1.8848,1.8832,1.8814,1.8808,1.8806,1.8805,1.8805,1.8806,1.8804,1.8809,1.8809,1.8809,1.8809,1.8809,0,1.9121,1.9104,1.9087,1.9061,1.9046,1.9032,1.901,1.8998,1.898,1.8959,1.894,1.8915,1.8893,1.8866,1.8842,1.8832,1.8824,1.8827,1.8827,1.8823,1.8814,1.8817,1.8834,1.8834,1.8834,1.8834,1.8834,1.8834,1.9128,1.9113,1.9098,1.9074,1.9057,1.9037,1.9025,1.9008,1.899,1.8964,1.8945,1.8928,1.8903,1.8876,1.8855,1.8847,1.8839,1.8844,1.8834,1.8826,1.8824,1.8822,1.8825,1.8842,1.8842,1.8844,1.8844,1.8844]}]]